date,time,SUV Intensity [MED/Hr],UV Index,Daily total [MED],Since Last [MED]
20/08/2022,00:12:01,0.000,0.0,0.0,0.0
20/08/2022,00:12:53,0.001,0.0,0.0,0.0
20/08/2022,00:13:53,0.000,0.0,0.0,0.0
20/08/2022,00:15:09,0.000,0.0,0.0,0.0
20/08/2022,00:16:53,0.000,0.0,0.0,0.0
20/08/2022,00:17:54,0.000,0.0,0.0,0.0
20/08/2022,00:19:01,0.001,0.0,0.0,0.0
20/08/2022,00:19:53,0.001,0.0,0.0,0.0
20/08/2022,00:20:53,0.000,0.0,0.0,0.0
20/08/2022,00:21:53,0.000,0.0,0.0,0.0
20/08/2022,00:22:52,0.000,0.0,0.0,0.0
20/08/2022,00:23:53,0.000,0.0,0.0,0.0
20/08/2022,00:24:53,0.000,0.0,0.0,0.0
20/08/2022,00:25:53,0.001,0.0,0.0,0.0
20/08/2022,00:26:53,0.000,0.0,0.0,0.0
20/08/2022,00:27:53,0.000,0.0,0.0,0.0
20/08/2022,00:28:54,-0.001,0.0,0.0,0.0
20/08/2022,00:29:53,0.001,0.0,0.0,0.0
20/08/2022,00:30:52,0.000,0.0,0.0,0.0
20/08/2022,00:31:52,-0.001,0.0,0.0,0.0
20/08/2022,00:32:52,0.000,0.0,0.0,0.0
20/08/2022,00:33:53,0.000,0.0,0.0,0.0
20/08/2022,00:34:52,0.000,0.0,0.0,0.0
20/08/2022,00:35:53,0.000,0.0,0.0,0.0
20/08/2022,00:37:01,0.001,0.0,0.0,0.0
20/08/2022,00:37:52,0.001,0.0,0.0,0.0
20/08/2022,00:38:53,0.000,0.0,0.0,0.0
20/08/2022,00:40:01,0.000,0.0,0.0,0.0
20/08/2022,00:40:53,-0.001,0.0,0.0,0.0
20/08/2022,00:41:53,0.000,0.0,0.0,0.0
20/08/2022,00:43:00,0.000,0.0,0.0,0.0
20/08/2022,00:43:55,0.000,0.0,0.0,0.0
20/08/2022,00:44:53,0.000,0.0,0.0,0.0
20/08/2022,00:45:52,0.000,0.0,0.0,0.0
20/08/2022,00:46:52,0.001,0.0,0.0,0.0
20/08/2022,00:47:53,0.000,0.0,0.0,0.0
20/08/2022,00:48:53,0.000,0.0,0.0,0.0
20/08/2022,00:49:52,-0.001,0.0,0.0,0.0
20/08/2022,00:50:53,0.000,0.0,0.0,0.0
20/08/2022,00:51:53,-0.001,0.0,0.0,0.0
20/08/2022,00:53:01,0.000,0.0,0.0,0.0
20/08/2022,00:53:52,0.000,0.0,0.0,0.0
20/08/2022,00:54:52,0.001,0.0,0.0,0.0
20/08/2022,00:56:06,0.000,0.0,0.0,0.0
20/08/2022,00:57:53,-0.001,0.0,0.0,0.0
20/08/2022,00:58:53,0.000,0.0,0.0,0.0
20/08/2022,00:59:53,0.001,0.0,0.0,0.0
20/08/2022,01:00:53,0.001,0.0,0.0,0.0
20/08/2022,01:01:53,0.000,0.0,0.0,0.0
20/08/2022,01:02:53,0.000,0.0,0.0,0.0
20/08/2022,01:03:53,-0.000,0.0,0.0,0.0
20/08/2022,01:04:52,0.000,0.0,0.0,0.0
20/08/2022,01:05:53,0.000,0.0,0.0,0.0
20/08/2022,01:06:52,0.001,0.0,0.0,0.0
20/08/2022,01:08:01,0.000,0.0,0.0,0.0
20/08/2022,01:08:52,-0.000,0.0,0.0,0.0
20/08/2022,01:09:53,0.000,0.0,0.0,0.0
20/08/2022,01:10:53,-0.000,0.0,0.0,0.0
20/08/2022,01:11:53,0.000,0.0,0.0,0.0
20/08/2022,01:12:53,0.000,0.0,0.0,0.0
20/08/2022,01:14:01,0.000,0.0,0.0,0.0
20/08/2022,01:14:53,0.000,0.0,0.0,0.0
20/08/2022,01:15:53,-0.000,0.0,0.0,0.0
20/08/2022,01:16:53,0.000,0.0,0.0,0.0
20/08/2022,01:17:52,-0.000,0.0,0.0,0.0
20/08/2022,01:18:52,0.000,0.0,0.0,0.0
20/08/2022,01:20:01,0.000,0.0,0.0,0.0
20/08/2022,01:20:54,-0.001,0.0,0.0,0.0
20/08/2022,01:21:53,0.000,0.0,0.0,0.0
20/08/2022,01:22:53,0.000,0.0,0.0,0.0
20/08/2022,01:23:52,0.000,0.0,0.0,0.0
20/08/2022,01:24:53,0.000,0.0,0.0,0.0
20/08/2022,01:25:53,0.000,0.0,0.0,0.0
20/08/2022,01:27:01,0.001,0.0,0.0,0.0
20/08/2022,01:27:53,-0.000,0.0,0.0,0.0
20/08/2022,01:28:53,0.000,0.0,0.0,0.0
20/08/2022,01:30:01,0.001,0.0,0.0,0.0
20/08/2022,01:30:53,0.000,0.0,0.0,0.0
20/08/2022,01:31:53,0.000,0.0,0.0,0.0
20/08/2022,01:32:54,0.001,0.0,0.0,0.0
20/08/2022,01:33:53,0.001,0.0,0.0,0.0
20/08/2022,01:34:53,0.000,0.0,0.0,0.0
20/08/2022,01:35:53,0.000,0.0,0.0,0.0
20/08/2022,01:36:52,0.000,0.0,0.0,0.0
20/08/2022,01:37:53,0.000,0.0,0.0,0.0
20/08/2022,01:38:52,0.000,0.0,0.0,0.0
20/08/2022,01:40:01,0.000,0.0,0.0,0.0
20/08/2022,01:40:52,0.000,0.0,0.0,0.0
20/08/2022,01:42:01,0.000,0.0,0.0,0.0
20/08/2022,01:42:52,-0.001,0.0,0.0,0.0
20/08/2022,01:43:52,0.001,0.0,0.0,0.0
20/08/2022,01:44:53,0.001,0.0,0.0,0.0
20/08/2022,01:45:52,0.000,0.0,0.0,0.0
20/08/2022,01:46:53,0.000,0.0,0.0,0.0
20/08/2022,01:47:44,0.000,0.0,0.0,0.0
20/08/2022,01:48:54,0.000,0.0,0.0,0.0
20/08/2022,01:49:52,-0.001,0.0,0.0,0.0
20/08/2022,01:50:52,-0.001,0.0,0.0,0.0
20/08/2022,01:51:53,0.001,0.0,0.0,0.0
20/08/2022,01:52:53,0.001,0.0,0.0,0.0
20/08/2022,01:53:52,0.000,0.0,0.0,0.0
20/08/2022,01:54:53,0.000,0.0,0.0,0.0
20/08/2022,01:55:53,0.000,0.0,0.0,0.0
20/08/2022,01:56:53,-0.001,0.0,0.0,0.0
20/08/2022,01:57:52,0.000,0.0,0.0,0.0
20/08/2022,01:58:53,0.001,0.0,0.0,0.0
20/08/2022,01:59:53,0.001,0.0,0.0,0.0
20/08/2022,02:01:01,-0.001,0.0,0.0,0.0
20/08/2022,02:01:53,-0.000,0.0,0.0,0.0
20/08/2022,02:02:55,0.000,0.0,0.0,0.0
20/08/2022,02:03:53,0.000,0.0,0.0,0.0
20/08/2022,02:04:52,0.000,0.0,0.0,0.0
20/08/2022,02:05:53,0.001,0.0,0.0,0.0
20/08/2022,02:06:53,0.000,0.0,0.0,0.0
20/08/2022,02:07:53,-0.000,0.0,0.0,0.0
20/08/2022,02:08:53,0.001,0.0,0.0,0.0
20/08/2022,02:09:53,0.000,0.0,0.0,0.0
20/08/2022,02:11:01,0.001,0.0,0.0,0.0
20/08/2022,02:11:52,0.001,0.0,0.0,0.0
20/08/2022,02:12:55,0.000,0.0,0.0,0.0
20/08/2022,02:13:53,0.000,0.0,0.0,0.0
20/08/2022,02:14:52,0.000,0.0,0.0,0.0
20/08/2022,02:15:53,0.000,0.0,0.0,0.0
20/08/2022,02:17:01,-0.000,0.0,0.0,0.0
20/08/2022,02:17:51,0.000,0.0,0.0,0.0
20/08/2022,02:18:53,0.000,0.0,0.0,0.0
20/08/2022,02:20:01,0.001,0.0,0.0,0.0
20/08/2022,02:20:53,0.000,0.0,0.0,0.0
20/08/2022,02:21:53,0.001,0.0,0.0,0.0
20/08/2022,02:22:53,-0.001,0.0,0.0,0.0
20/08/2022,02:23:53,-0.000,0.0,0.0,0.0
20/08/2022,02:24:53,-0.001,0.0,0.0,0.0
20/08/2022,02:25:53,0.001,0.0,0.0,0.0
20/08/2022,02:26:52,0.001,0.0,0.0,0.0
20/08/2022,02:27:53,0.000,0.0,0.0,0.0
20/08/2022,02:28:53,0.000,0.0,0.0,0.0
20/08/2022,02:30:01,0.000,0.0,0.0,0.0
20/08/2022,02:30:52,-0.000,0.0,0.0,0.0
20/08/2022,02:31:53,0.000,0.0,0.0,0.0
20/08/2022,02:33:02,0.001,0.0,0.0,0.0
20/08/2022,02:33:53,0.000,0.0,0.0,0.0
20/08/2022,02:34:53,0.000,0.0,0.0,0.0
20/08/2022,02:35:53,0.000,0.0,0.0,0.0
20/08/2022,02:36:53,0.000,0.0,0.0,0.0
20/08/2022,02:37:53,-0.000,0.0,0.0,0.0
20/08/2022,02:38:53,-0.001,0.0,0.0,0.0
20/08/2022,02:39:53,0.001,0.0,0.0,0.0
20/08/2022,02:40:53,0.001,0.0,0.0,0.0
20/08/2022,02:41:53,0.000,0.0,0.0,0.0
20/08/2022,02:42:53,0.001,0.0,0.0,0.0
20/08/2022,02:43:53,0.001,0.0,0.0,0.0
20/08/2022,02:44:53,0.001,0.0,0.0,0.0
20/08/2022,02:45:53,0.001,0.0,0.0,0.0
20/08/2022,02:46:53,0.001,0.0,0.0,0.0
20/08/2022,02:47:53,-0.000,0.0,0.0,0.0
20/08/2022,02:49:01,0.001,0.0,0.0,0.0
20/08/2022,02:49:53,0.000,0.0,0.0,0.0
20/08/2022,02:50:53,0.001,0.0,0.0,0.0
20/08/2022,02:51:53,0.001,0.0,0.0,0.0
20/08/2022,02:52:53,0.000,0.0,0.0,0.0
20/08/2022,02:53:53,-0.000,0.0,0.0,0.0
20/08/2022,02:54:53,0.001,0.0,0.0,0.0
20/08/2022,02:55:53,0.001,0.0,0.0,0.0
20/08/2022,02:56:53,0.000,0.0,0.0,0.0
20/08/2022,02:57:53,0.001,0.0,0.0,0.0
20/08/2022,02:58:58,0.000,0.0,0.0,0.0
20/08/2022,02:59:53,-0.000,0.0,0.0,0.0
20/08/2022,03:01:01,-0.000,0.0,0.0,0.0
20/08/2022,03:01:52,0.001,0.0,0.0,0.0
20/08/2022,03:02:53,0.001,0.0,0.0,0.0
20/08/2022,03:03:52,0.000,0.0,0.0,0.0
20/08/2022,03:04:53,0.001,0.0,0.0,0.0
20/08/2022,03:05:53,0.001,0.0,0.0,0.0
20/08/2022,03:06:53,0.001,0.0,0.0,0.0
20/08/2022,03:07:53,0.001,0.0,0.0,0.0
20/08/2022,03:08:53,0.000,0.0,0.0,0.0
20/08/2022,03:09:53,0.001,0.0,0.0,0.0
20/08/2022,03:10:53,0.001,0.0,0.0,0.0
20/08/2022,03:11:53,-0.000,0.0,0.0,0.0
20/08/2022,03:12:53,0.001,0.0,0.0,0.0
20/08/2022,03:14:01,0.000,0.0,0.0,0.0
20/08/2022,03:14:53,0.001,0.0,0.0,0.0
20/08/2022,03:15:53,0.001,0.0,0.0,0.0
20/08/2022,03:17:01,0.002,0.0,0.0,0.0
20/08/2022,03:17:53,0.002,0.0,0.0,0.0
20/08/2022,03:18:53,0.002,0.0,0.0,0.0
20/08/2022,03:19:53,0.001,0.0,0.0,0.0
20/08/2022,03:20:53,0.001,0.0,0.0,0.0
20/08/2022,03:21:53,0.002,0.0,0.0,0.0
20/08/2022,03:22:53,0.001,0.0,0.0,0.0
20/08/2022,03:23:53,0.001,0.0,0.0,0.0
20/08/2022,03:24:53,0.001,0.0,0.0,0.0
20/08/2022,03:25:53,0.002,0.0,0.0,0.0
20/08/2022,03:27:01,0.002,0.0,0.0,0.0
20/08/2022,03:27:53,0.001,0.0,0.0,0.0
20/08/2022,03:28:53,0.001,0.0,0.0,0.0
20/08/2022,03:30:01,0.001,0.0,0.0,0.0
20/08/2022,03:30:53,0.001,0.0,0.0,0.0
20/08/2022,03:31:53,0.001,0.0,0.0,0.0
20/08/2022,03:32:53,0.001,0.0,0.0,0.0
20/08/2022,03:33:53,0.000,0.0,0.0,0.0
20/08/2022,03:34:53,0.001,0.0,0.0,0.0
20/08/2022,03:35:53,0.001,0.0,0.0,0.0
20/08/2022,03:36:53,0.001,0.0,0.0,0.0
20/08/2022,03:38:01,0.001,0.0,0.0,0.0
20/08/2022,03:38:53,0.001,0.0,0.0,0.0
20/08/2022,03:40:02,-0.000,0.0,0.0,0.0
20/08/2022,03:40:51,0.001,0.0,0.0,0.0
20/08/2022,03:41:53,0.001,0.0,0.0,0.0
20/08/2022,03:42:53,0.000,0.0,0.0,0.0
20/08/2022,03:43:53,0.001,0.0,0.0,0.0
20/08/2022,03:44:53,0.001,0.0,0.0,0.0
20/08/2022,03:45:53,0.002,0.0,0.0,0.0
20/08/2022,03:46:53,-0.000,0.0,0.0,0.0
20/08/2022,03:47:53,0.001,0.0,0.0,0.0
20/08/2022,03:48:53,0.001,0.0,0.0,0.0
20/08/2022,03:50:18,0.000,0.0,0.0,0.0
20/08/2022,03:51:54,0.001,0.0,0.0,0.0
20/08/2022,03:52:53,0.000,0.0,0.0,0.0
20/08/2022,03:53:53,0.001,0.0,0.0,0.0
20/08/2022,03:54:53,0.001,0.0,0.0,0.0
20/08/2022,03:56:01,0.001,0.0,0.0,0.0
20/08/2022,03:56:52,0.001,0.0,0.0,0.0
20/08/2022,03:57:53,0.001,0.0,0.0,0.0
20/08/2022,03:58:53,0.001,0.0,0.0,0.0
20/08/2022,03:59:53,0.001,0.0,0.0,0.0
20/08/2022,04:00:53,0.002,0.0,0.0,0.0
20/08/2022,04:01:53,0.001,0.0,0.0,0.0
20/08/2022,04:02:53,0.001,0.0,0.0,0.0
20/08/2022,04:03:53,0.000,0.0,0.0,0.0
20/08/2022,04:04:53,0.001,0.0,0.0,0.0
20/08/2022,04:06:01,0.001,0.0,0.0,0.0
20/08/2022,04:06:53,0.001,0.0,0.0,0.0
20/08/2022,04:08:02,0.001,0.0,0.0,0.0
20/08/2022,04:09:02,0.001,0.0,0.0,0.0
20/08/2022,04:09:53,0.001,0.0,0.0,0.0
20/08/2022,04:10:53,0.001,0.0,0.0,0.0
20/08/2022,04:11:53,0.001,0.0,0.0,0.0
20/08/2022,04:12:54,0.001,0.0,0.0,0.0
20/08/2022,04:13:53,0.000,0.0,0.0,0.0
20/08/2022,04:14:53,0.001,0.0,0.0,0.0
20/08/2022,04:15:53,0.001,0.0,0.0,0.0
20/08/2022,04:16:54,0.001,0.0,0.0,0.0
20/08/2022,04:18:01,-0.000,0.0,0.0,0.0
20/08/2022,04:18:53,0.000,0.0,0.0,0.0
20/08/2022,04:19:53,0.001,0.0,0.0,0.0
20/08/2022,04:20:53,0.001,0.0,0.0,0.0
20/08/2022,04:21:53,0.001,0.0,0.0,0.0
20/08/2022,04:22:53,0.001,0.0,0.0,0.0
20/08/2022,04:24:02,0.001,0.0,0.0,0.0
20/08/2022,04:25:00,0.000,0.0,0.0,0.0
20/08/2022,04:25:53,0.002,0.0,0.0,0.0
20/08/2022,04:26:53,0.001,0.0,0.0,0.0
20/08/2022,04:27:53,0.001,0.0,0.0,0.0
20/08/2022,04:28:53,-0.000,0.0,0.0,0.0
20/08/2022,04:29:53,0.001,0.0,0.0,0.0
20/08/2022,04:30:53,0.001,0.0,0.0,0.0
20/08/2022,04:31:53,0.001,0.0,0.0,0.0
20/08/2022,04:32:53,0.001,0.0,0.0,0.0
20/08/2022,04:33:53,0.001,0.0,0.0,0.0
20/08/2022,04:34:53,0.001,0.0,0.0,0.0
20/08/2022,04:35:53,0.001,0.0,0.0,0.0
20/08/2022,04:36:53,0.001,0.0,0.0,0.0
20/08/2022,04:37:53,0.001,0.0,0.0,0.0
20/08/2022,04:38:53,0.001,0.0,0.0,0.0
20/08/2022,04:39:53,0.001,0.0,0.0,0.0
20/08/2022,04:40:53,0.001,0.0,0.0,0.0
20/08/2022,04:41:54,0.001,0.0,0.0,0.0
20/08/2022,04:42:53,-0.001,0.0,0.0,0.0
20/08/2022,04:43:53,0.001,0.0,0.0,0.0
20/08/2022,04:44:53,0.001,0.0,0.0,0.0
20/08/2022,04:45:53,0.002,0.0,0.0,0.0
20/08/2022,04:47:15,0.001,0.0,0.0,0.0
20/08/2022,04:48:53,0.001,0.0,0.0,0.0
20/08/2022,04:49:53,0.001,0.0,0.0,0.0
20/08/2022,04:50:53,0.002,0.0,0.0,0.0
20/08/2022,04:51:54,0.002,0.0,0.0,0.0
20/08/2022,04:52:55,0.001,0.0,0.0,0.0
20/08/2022,04:53:53,0.001,0.0,0.0,0.0
20/08/2022,04:54:53,0.001,0.0,0.0,0.0
20/08/2022,04:55:53,0.001,0.0,0.0,0.0
20/08/2022,04:56:53,0.002,0.0,0.0,0.0
20/08/2022,04:57:54,0.001,0.0,0.0,0.0
20/08/2022,04:58:53,0.002,0.0,0.0,0.0
20/08/2022,04:59:53,0.003,0.0,0.0,0.0
20/08/2022,05:00:53,0.002,0.0,0.0,0.0
20/08/2022,05:01:53,0.003,0.0,0.0,0.0
20/08/2022,05:03:02,0.002,0.0,0.0,0.0
20/08/2022,05:03:53,0.001,0.0,0.0,0.0
20/08/2022,05:04:53,0.003,0.0,0.0,0.0
20/08/2022,05:05:53,0.003,0.0,0.0,0.0
20/08/2022,05:06:53,0.002,0.0,0.0,0.0
20/08/2022,05:07:53,0.003,0.0,0.0,0.0
20/08/2022,05:08:53,0.003,0.0,0.0,0.0
20/08/2022,05:09:53,0.004,0.0,0.0,0.0
20/08/2022,05:10:53,0.005,0.0,0.0,0.0
20/08/2022,05:11:53,0.004,0.0,0.0,0.0
20/08/2022,05:13:01,0.004,0.0,0.0,0.0
20/08/2022,05:13:53,0.003,0.0,0.0,0.0
20/08/2022,05:14:54,0.005,0.0,0.0,0.0
20/08/2022,05:15:54,0.005,0.0,0.0,0.0
20/08/2022,05:16:53,0.005,0.0,0.0,0.0
20/08/2022,05:17:53,0.005,0.0,0.0,0.0
20/08/2022,05:18:53,0.005,0.0,0.0,0.0
20/08/2022,05:19:53,0.006,0.0,0.0,0.0
20/08/2022,05:20:53,0.006,0.0,0.0,0.0
20/08/2022,05:21:53,0.007,0.0,0.0,0.0
20/08/2022,05:23:01,0.007,0.0,0.0,0.0
20/08/2022,05:23:53,0.007,0.0,0.001,0.001
20/08/2022,05:24:54,0.008,0.0,0.001,0.0
20/08/2022,05:26:02,0.008,0.0,0.001,0.0
20/08/2022,05:26:53,0.009,0.0,0.001,0.0
20/08/2022,05:27:53,0.009,0.0,0.001,0.0
20/08/2022,05:29:01,0.010,0.0,0.001,0.0
20/08/2022,05:29:53,0.010,0.0,0.001,0.0
20/08/2022,05:30:53,0.010,0.0,0.002,0.001
20/08/2022,05:31:53,0.011,0.0,0.002,0.0
20/08/2022,05:32:53,0.010,0.0,0.002,0.0
20/08/2022,05:33:53,0.012,0.0,0.002,0.0
20/08/2022,05:34:53,0.012,0.0,0.002,0.0
20/08/2022,05:35:54,0.013,0.0,0.003,0.001
20/08/2022,05:36:53,0.014,0.0,0.003,0.0
20/08/2022,05:37:53,0.013,0.0,0.003,0.0
20/08/2022,05:39:01,0.014,0.0,0.003,0.0
20/08/2022,05:39:53,0.015,0.0,0.003,0.0
20/08/2022,05:40:53,0.016,0.0,0.004,0.001
20/08/2022,05:41:53,0.016,0.0,0.004,0.0
20/08/2022,05:42:53,0.017,0.0,0.004,0.0
20/08/2022,05:43:53,0.018,0.0,0.005,0.001
20/08/2022,05:44:46,0.018,0.0,0.005,0.0
20/08/2022,05:45:54,0.019,0.0,0.005,0.0
20/08/2022,05:46:53,0.019,0.0,0.005,0.0
20/08/2022,05:47:53,0.019,0.0,0.006,0.001
20/08/2022,05:49:02,0.020,0.0,0.006,0.0
20/08/2022,05:49:53,0.021,0.0,0.006,0.0
20/08/2022,05:50:53,0.021,0.0,0.007,0.001
20/08/2022,05:51:53,0.022,0.0,0.007,0.0
20/08/2022,05:52:53,0.023,0.0,0.008,0.001
20/08/2022,05:53:54,0.025,0.0,0.008,0.0
20/08/2022,05:54:54,0.025,0.0,0.008,0.0
20/08/2022,05:55:53,0.026,0.0,0.009,0.001
20/08/2022,05:56:54,0.026,0.0,0.009,0.0
20/08/2022,05:57:53,0.028,0.0,0.01,0.001
20/08/2022,05:58:53,0.029,0.0,0.01,0.0
20/08/2022,05:59:53,0.030,0.0,0.011,0.001
20/08/2022,06:00:53,0.031,0.0,0.011,0.0
20/08/2022,06:01:53,0.032,0.0,0.012,0.001
20/08/2022,06:02:53,0.033,0.0,0.012,0.0
20/08/2022,06:04:02,0.034,0.0,0.013,0.001
20/08/2022,06:04:53,0.034,0.0,0.013,0.0
20/08/2022,06:05:53,0.036,0.0,0.014,0.001
20/08/2022,06:06:53,0.037,0.0,0.015,0.001
20/08/2022,06:07:53,0.037,0.0,0.015,0.0
20/08/2022,06:08:53,0.039,0.0,0.016,0.001
20/08/2022,06:09:53,0.040,0.0,0.016,0.0
20/08/2022,06:10:53,0.041,0.0,0.017,0.001
20/08/2022,06:11:53,0.042,0.0,0.018,0.001
20/08/2022,06:12:53,0.044,0.0,0.019,0.001
20/08/2022,06:13:53,0.044,0.0,0.019,0.0
20/08/2022,06:15:01,0.046,0.0,0.02,0.001
20/08/2022,06:15:53,0.046,0.0,0.021,0.001
20/08/2022,06:16:53,0.049,0.0,0.022,0.001
20/08/2022,06:17:54,0.049,0.0,0.022,0.0
20/08/2022,06:18:53,0.051,0.0,0.023,0.001
20/08/2022,06:19:53,0.053,0.0,0.024,0.001
20/08/2022,06:20:53,0.054,0.0,0.025,0.001
20/08/2022,06:21:53,0.054,0.0,0.026,0.001
20/08/2022,06:22:53,0.057,0.0,0.027,0.001
20/08/2022,06:23:53,0.058,0.0,0.028,0.001
20/08/2022,06:24:53,0.059,0.0,0.029,0.001
20/08/2022,06:25:53,0.061,0.0,0.03,0.001
20/08/2022,06:26:53,0.063,0.0,0.031,0.001
20/08/2022,06:28:01,0.064,0.0,0.032,0.001
20/08/2022,06:28:53,0.067,0.0,0.033,0.001
20/08/2022,06:29:53,0.070,0.0,0.034,0.001
20/08/2022,06:31:01,0.071,0.0,0.036,0.002
20/08/2022,06:31:53,0.073,0.0,0.037,0.001
20/08/2022,06:32:53,0.074,0.0,0.038,0.001
20/08/2022,06:34:01,0.075,0.0,0.039,0.001
20/08/2022,06:34:53,0.077,0.0,0.04,0.001
20/08/2022,06:35:53,0.077,0.0,0.042,0.002
20/08/2022,06:36:54,0.073,0.0,0.043,0.001
20/08/2022,06:37:53,0.068,0.0,0.044,0.001
20/08/2022,06:38:53,0.069,0.0,0.045,0.001
20/08/2022,06:39:54,0.071,0.0,0.046,0.001
20/08/2022,06:40:53,0.070,0.0,0.047,0.001
20/08/2022,06:41:54,0.074,0.0,0.049,0.002
20/08/2022,06:42:56,0.079,0.0,0.05,0.001
20/08/2022,06:44:01,0.086,0.0,0.051,0.001
20/08/2022,06:44:53,0.088,0.0,0.053,0.002
20/08/2022,06:45:53,0.087,0.0,0.054,0.001
20/08/2022,06:46:53,0.086,0.0,0.056,0.002
20/08/2022,06:47:53,0.089,0.0,0.057,0.001
20/08/2022,06:48:54,0.086,0.0,0.059,0.002
20/08/2022,06:49:53,0.085,0.0,0.06,0.001
20/08/2022,06:50:53,0.085,0.0,0.061,0.001
20/08/2022,06:51:53,0.077,0.0,0.063,0.002
20/08/2022,06:52:53,0.075,0.0,0.064,0.001
20/08/2022,06:53:53,0.081,0.0,0.065,0.001
20/08/2022,06:54:53,0.091,0.0,0.067,0.002
20/08/2022,06:55:53,0.100,0.0,0.068,0.001
20/08/2022,06:57:01,0.105,0.0,0.07,0.002
20/08/2022,06:57:53,0.111,0.0,0.072,0.002
20/08/2022,06:58:54,0.113,0.0,0.074,0.002
20/08/2022,06:59:53,0.119,0.0,0.076,0.002
20/08/2022,07:00:54,0.124,0.0,0.078,0.002
20/08/2022,07:01:54,0.128,0.0,0.08,0.002
20/08/2022,07:02:53,0.136,0.0,0.082,0.002
20/08/2022,07:03:53,0.142,0.0,0.084,0.002
20/08/2022,07:04:53,0.145,0.0,0.087,0.003
20/08/2022,07:05:53,0.145,0.0,0.089,0.002
20/08/2022,07:06:54,0.149,0.0,0.092,0.003
20/08/2022,07:07:53,0.160,0.0,0.094,0.002
20/08/2022,07:08:53,0.161,0.0,0.097,0.003
20/08/2022,07:10:01,0.165,0.0,0.1,0.003
20/08/2022,07:10:53,0.160,0.0,0.102,0.002
20/08/2022,07:11:53,0.162,0.0,0.105,0.003
20/08/2022,07:12:53,0.164,0.0,0.108,0.003
20/08/2022,07:13:54,0.177,0.0,0.111,0.003
20/08/2022,07:14:54,0.184,0.0,0.114,0.003
20/08/2022,07:15:54,0.189,0.0,0.117,0.003
20/08/2022,07:16:53,0.190,0.0,0.12,0.003
20/08/2022,07:17:53,0.195,0.0,0.123,0.003
20/08/2022,07:18:54,0.198,0.0,0.126,0.003
20/08/2022,07:19:54,0.190,0.0,0.13,0.004
20/08/2022,07:20:54,0.203,0.0,0.133,0.003
20/08/2022,07:21:53,0.203,0.0,0.136,0.003
20/08/2022,07:23:01,0.207,0.0,0.14,0.004
20/08/2022,07:23:53,0.212,0.0,0.143,0.003
20/08/2022,07:24:53,0.205,0.0,0.147,0.004
20/08/2022,07:25:53,0.211,0.0,0.15,0.003
20/08/2022,07:26:53,0.231,1.0,0.154,0.004
20/08/2022,07:27:54,0.235,1.0,0.158,0.004
20/08/2022,07:28:53,0.240,1.0,0.162,0.004
20/08/2022,07:29:53,0.244,1.0,0.166,0.004
20/08/2022,07:30:53,0.250,1.0,0.17,0.004
20/08/2022,07:31:53,0.252,1.0,0.174,0.004
20/08/2022,07:33:02,0.258,1.0,0.179,0.005
20/08/2022,07:33:52,0.263,1.0,0.183,0.004
20/08/2022,07:34:53,0.267,1.0,0.187,0.004
20/08/2022,07:35:54,0.266,1.0,0.192,0.005
20/08/2022,07:36:54,0.276,1.0,0.196,0.004
20/08/2022,07:37:53,0.280,1.0,0.201,0.005
20/08/2022,07:39:02,0.285,1.0,0.206,0.005
20/08/2022,07:39:53,0.287,1.0,0.21,0.004
20/08/2022,07:40:53,0.293,1.0,0.215,0.005
20/08/2022,07:41:53,0.297,1.0,0.22,0.005
20/08/2022,07:42:54,0.304,1.0,0.225,0.005
20/08/2022,07:43:54,0.307,1.0,0.23,0.005
20/08/2022,07:44:53,0.312,1.0,0.235,0.005
20/08/2022,07:45:54,0.317,1.0,0.241,0.006
20/08/2022,07:46:53,0.322,1.0,0.246,0.005
20/08/2022,07:47:53,0.326,1.0,0.251,0.005
20/08/2022,07:49:02,0.331,1.0,0.257,0.006
20/08/2022,07:49:52,0.337,1.0,0.262,0.005
20/08/2022,07:50:53,0.340,1.0,0.268,0.006
20/08/2022,07:52:02,0.348,1.0,0.274,0.006
20/08/2022,07:52:54,0.352,1.0,0.28,0.006
20/08/2022,07:53:53,0.358,1.0,0.285,0.005
20/08/2022,07:54:53,0.362,1.0,0.291,0.006
20/08/2022,07:55:53,0.364,1.0,0.297,0.006
20/08/2022,07:56:53,0.373,1.0,0.303,0.006
20/08/2022,07:57:53,0.386,1.0,0.31,0.007
20/08/2022,07:58:54,0.352,1.0,0.316,0.006
20/08/2022,07:59:53,0.331,1.0,0.322,0.006
20/08/2022,08:00:54,0.346,1.0,0.327,0.005
20/08/2022,08:02:01,0.373,1.0,0.334,0.007
20/08/2022,08:02:53,0.404,1.0,0.34,0.006
20/08/2022,08:03:53,0.414,1.0,0.347,0.007
20/08/2022,08:04:54,0.357,1.0,0.354,0.007
20/08/2022,08:05:53,0.412,1.0,0.36,0.006
20/08/2022,08:06:54,0.430,1.0,0.367,0.007
20/08/2022,08:08:04,0.437,1.0,0.376,0.009
20/08/2022,08:08:53,0.443,1.0,0.382,0.006
20/08/2022,08:10:02,0.450,1.0,0.39,0.008
20/08/2022,08:10:52,0.457,1.0,0.397,0.007
20/08/2022,08:11:54,0.463,1.0,0.404,0.007
20/08/2022,08:12:54,0.469,1.0,0.412,0.008
20/08/2022,08:14:02,0.478,1.0,0.421,0.009
20/08/2022,08:14:54,0.485,1.0,0.428,0.007
20/08/2022,08:15:55,0.488,1.0,0.437,0.009
20/08/2022,08:16:53,0.490,1.0,0.444,0.007
20/08/2022,08:17:54,0.505,1.0,0.453,0.009
20/08/2022,08:18:54,0.500,1.0,0.461,0.008
20/08/2022,08:19:54,0.400,1.0,0.469,0.008
20/08/2022,08:20:54,0.422,1.0,0.476,0.007
20/08/2022,08:21:54,0.393,1.0,0.482,0.006
20/08/2022,08:22:53,0.390,1.0,0.489,0.007
20/08/2022,08:23:54,0.391,1.0,0.495,0.006
20/08/2022,08:24:54,0.477,1.0,0.503,0.008
20/08/2022,08:25:54,0.381,1.0,0.51,0.007
20/08/2022,08:26:54,0.371,1.0,0.516,0.006
20/08/2022,08:27:53,0.505,1.0,0.523,0.007
20/08/2022,08:28:55,0.389,1.0,0.529,0.006
20/08/2022,08:30:02,0.417,1.0,0.537,0.008
20/08/2022,08:30:52,0.535,1.0,0.544,0.007
20/08/2022,08:31:53,0.585,1.0,0.553,0.009
20/08/2022,08:32:53,0.453,1.0,0.562,0.009
20/08/2022,08:33:54,0.483,1.0,0.57,0.008
20/08/2022,08:34:54,0.495,1.0,0.578,0.008
20/08/2022,08:35:54,0.457,1.0,0.586,0.008
20/08/2022,08:36:53,0.443,1.0,0.594,0.008
20/08/2022,08:37:53,0.443,1.0,0.601,0.007
20/08/2022,08:38:54,0.430,1.0,0.608,0.007
20/08/2022,08:39:54,0.424,1.0,0.616,0.008
20/08/2022,08:40:54,0.372,1.0,0.622,0.006
20/08/2022,08:41:54,0.357,1.0,0.628,0.006
20/08/2022,08:42:53,0.324,1.0,0.634,0.006
20/08/2022,08:43:53,0.270,1.0,0.639,0.005
20/08/2022,08:44:54,0.279,1.0,0.644,0.005
20/08/2022,08:45:54,0.342,1.0,0.649,0.005
20/08/2022,08:46:54,0.403,1.0,0.655,0.006
20/08/2022,08:47:54,0.430,1.0,0.662,0.007
20/08/2022,08:48:53,0.429,1.0,0.669,0.007
20/08/2022,08:49:54,0.422,1.0,0.676,0.007
20/08/2022,08:50:54,0.383,1.0,0.683,0.007
20/08/2022,08:51:54,0.315,1.0,0.689,0.006
20/08/2022,08:52:54,0.314,1.0,0.694,0.005
20/08/2022,08:53:53,0.362,1.0,0.7,0.006
20/08/2022,08:54:54,0.437,1.0,0.706,0.006
20/08/2022,08:55:54,0.392,1.0,0.713,0.007
20/08/2022,08:56:54,0.402,1.0,0.72,0.007
20/08/2022,08:57:54,0.433,1.0,0.727,0.007
20/08/2022,08:59:02,0.462,1.0,0.735,0.008
20/08/2022,08:59:52,0.479,1.0,0.742,0.007
20/08/2022,09:00:53,0.507,1.0,0.75,0.008
20/08/2022,09:02:01,0.540,1.0,0.76,0.01
20/08/2022,09:02:53,0.564,1.0,0.768,0.008
20/08/2022,09:03:54,0.660,2.0,0.778,0.01
20/08/2022,09:04:53,0.585,1.0,0.788,0.01
20/08/2022,09:05:54,0.605,1.0,0.798,0.01
20/08/2022,09:06:53,0.697,2.0,0.81,0.012
20/08/2022,09:07:55,0.612,1.0,0.821,0.011
20/08/2022,09:08:53,0.836,2.0,0.831,0.01
20/08/2022,09:09:54,0.782,2.0,0.846,0.015
20/08/2022,09:10:54,0.926,2.0,0.86,0.014
20/08/2022,09:11:54,0.627,1.0,0.873,0.013
20/08/2022,09:12:53,0.649,1.0,0.884,0.011
20/08/2022,09:13:54,0.932,2.0,0.897,0.013
20/08/2022,09:14:53,0.658,2.0,0.91,0.013
20/08/2022,09:15:54,0.883,2.0,0.922,0.012
20/08/2022,09:16:53,0.701,2.0,0.934,0.012
20/08/2022,09:17:54,0.642,1.0,0.946,0.012
20/08/2022,09:18:53,0.961,2.0,0.958,0.012
20/08/2022,09:19:54,0.963,2.0,0.974,0.016
20/08/2022,09:21:02,0.794,2.0,0.991,0.017
20/08/2022,09:21:53,0.641,1.0,1.0,0.009
20/08/2022,09:22:53,0.624,1.0,1.011,0.011
20/08/2022,09:23:53,0.600,1.0,1.021,0.01
20/08/2022,09:24:53,0.651,1.0,1.034,0.013
20/08/2022,09:26:02,0.678,2.0,1.046,0.012
20/08/2022,09:27:02,0.875,2.0,1.06,0.014
20/08/2022,09:27:54,0.702,2.0,1.072,0.012
20/08/2022,09:28:53,0.491,1.0,1.081,0.009
20/08/2022,09:30:06,0.491,1.0,1.091,0.01
20/08/2022,09:31:55,0.553,1.0,1.108,0.017
20/08/2022,09:32:55,0.659,2.0,1.118,0.01
20/08/2022,09:34:02,0.765,2.0,1.134,0.016
20/08/2022,09:34:54,0.947,2.0,1.145,0.011
20/08/2022,09:35:53,0.681,2.0,1.16,0.015
20/08/2022,09:37:02,0.648,1.0,1.173,0.013
20/08/2022,09:37:53,0.613,1.0,1.182,0.009
20/08/2022,09:38:53,0.606,1.0,1.192,0.01
20/08/2022,09:39:53,0.604,1.0,1.202,0.01
20/08/2022,09:40:53,0.604,1.0,1.212,0.01
20/08/2022,09:41:54,0.612,1.0,1.222,0.01
20/08/2022,09:43:02,0.634,1.0,1.234,0.012
20/08/2022,09:43:54,0.652,1.0,1.243,0.009
20/08/2022,09:44:54,0.681,2.0,1.254,0.011
20/08/2022,09:45:54,0.795,2.0,1.267,0.013
20/08/2022,09:46:54,1.188,3.0,1.285,0.018
20/08/2022,09:47:54,1.127,3.0,1.305,0.02
20/08/2022,09:48:54,1.226,3.0,1.324,0.019
20/08/2022,09:49:54,1.237,3.0,1.345,0.021
20/08/2022,09:50:54,1.244,3.0,1.365,0.02
20/08/2022,09:51:54,1.261,3.0,1.386,0.021
20/08/2022,09:52:54,1.279,3.0,1.407,0.021
20/08/2022,09:53:54,1.308,3.0,1.429,0.022
20/08/2022,09:54:54,1.322,3.0,1.451,0.022
20/08/2022,09:56:02,1.328,3.0,1.476,0.025
20/08/2022,09:56:54,1.342,3.0,1.495,0.019
20/08/2022,09:57:54,1.357,3.0,1.518,0.023
20/08/2022,09:58:54,1.366,3.0,1.54,0.022
20/08/2022,09:59:53,1.264,3.0,1.562,0.022
20/08/2022,10:00:53,0.957,2.0,1.582,0.02
20/08/2022,10:01:54,1.351,3.0,1.601,0.019
20/08/2022,10:02:54,1.243,3.0,1.623,0.022
20/08/2022,10:03:53,0.670,2.0,1.639,0.016
20/08/2022,10:04:54,0.578,1.0,1.649,0.01
20/08/2022,10:05:54,0.538,1.0,1.658,0.009
20/08/2022,10:06:54,0.546,1.0,1.667,0.009
20/08/2022,10:07:54,0.551,1.0,1.677,0.01
20/08/2022,10:08:56,0.588,1.0,1.686,0.009
20/08/2022,10:09:53,0.680,2.0,1.697,0.011
20/08/2022,10:11:02,0.853,2.0,1.711,0.014
20/08/2022,10:11:53,0.834,2.0,1.723,0.012
20/08/2022,10:12:54,0.799,2.0,1.738,0.015
20/08/2022,10:13:54,0.777,2.0,1.751,0.013
20/08/2022,10:14:54,0.794,2.0,1.764,0.013
20/08/2022,10:15:54,0.834,2.0,1.778,0.014